Showing default

KITSAT B, 22828

Orbit data source: Space-Track

KITSAT B, 22828 is a payload satellite owned by KAIST (KR) in SSO that was launched on Sun, 26 Sep 1993 UTC via an ARIANE 40 launch vehicle from the French Guiana (FRGUI). Payload-class satellites include a variety of spacecraft equipped with specific instruments for various scientific and technological missions. These include communications satellites like Starlink; space stations such as the ISS; scientific satellites like the Hubble; Earth observation satellites from companies like Planet Labs, Umbra, and HawkEye 360; GPS; miniature CubeSats for education and research; and military/defense satellites.

Loading next visibility...
Identifier
22828, 1993-061F
Orbit
SSO
Country
Flag of UnknownUnknown / SKOR
Related business
Manufacturer
SSTL
Mission
Non-operational Civil Com/Imaging
Bus & Motor
UOSAT, Unknown motor
Mass
50 kg wet, 50 kg dry
Launch date (UTC)
1993-09-26 (32 years ago)
Launch vehicle
ARIANE 40
Launch site
French Guiana (FRGUI)
Object type
Payload
Rocket body
Debris
Shape & HBR
Box + 1 Ant, 3.3 m
Radar Cross Section
0.632 m², Medium (>0.1 m² and < 1m²)

Expand to show TLE details & history
Last TLE update: 8 hours ago

TLE from 8 hours ago
0 KITSAT B
1 22828U 93061F   25258.16722015  .00000186  00000-0  86643-4 0  9993
2 22828  98.7251 319.8041 0010711 130.6514 229.5602 14.31657701636457
Epoch: 2025-09-15T04:00Z
TLE epoch observation values (Epoch: 2025-09-15T04:00:47.82Z)
Latitude
-0.00002°
Longitude
-94.77091°
Altitude
794.108 km
Speed
7.454 km/s
True Right ascension
21h 19m 12s
True Declination
0° 00' 00"
Sunlit
Object was in full shadow at epoch
Visualization orbit readout
Latitude
Unknown
Longitude
Unknown
Altitude
Unknown
Speed
Unknown
Apparent Right ascension
Unknown
Apparent Declination
Unknown
Sunlit
N/A
Visualization observer readout
Local Sidereal Time
04:51:35
Azimuth
Unknown
Elevation
Unknown
Doppler factor
Unknown
Orbital elements
Apogee altitude
791.01 km
Perigee altitude
775.668 km
Semi-major axis
7,161.476 km
Eccentricity
0.00107
Inclination
98.7251°
RAAN
319.8041°
Arg. of periapsis
130.6514°
True anomaly
229.46687°
Mean anomaly
229.5602°
Eccentric anomaly
229.51352°
Mean motion
3.58129 °/min
Orbital period
100.52 mins
BSTAR
0.000086643
Loading maneuver chart data...
Computing Atmospheric mass density...
Loading historical data...
Loading historical data...
Loading historical data...
Loading historical data...
Loading historical data...
Loading historical data...
Loading historical data...

Documentation

Showing up to 5 results
|